• In Deutschland
  • Länderverzeichnis
  • Für 7 Tage
  • Wassertemperatur
  • Satellitenkarten
  • Wetterkarte
  • Widgets
  • user-avatar
    Anmelden

    Stündliche Wetter Bregenz

    Heute, 19 November, Sonntag

    Zeit Temperatur Niederschläge Wind Luftdruck Luftfeuchtigkeit
    00:00 -6°C° 0 mm 2 m/S 645 mmHg 81%
    01:00 -5°C° 0 mm 2 m/S 644 mmHg 77%
    02:00 -6°C° 0,4 mm 3 m/S 644 mmHg 79%
    03:00 -6°C° 0,4 mm 3 m/S 644 mmHg 80%
    04:00 -6°C° 0,4 mm 3 m/S 643 mmHg 81%
    05:00 -6°C° 1,2 mm 3 m/S 643 mmHg 85%
    06:00 -5°C° 1,2 mm 3 m/S 643 mmHg 88%
    07:00 -6°C° 0 mm 3 m/S 642 mmHg 92%
    08:00 -5°C° 0,8 mm 3 m/S 643 mmHg 92%
    09:00 -5°C° 0,8 mm 3 m/S 643 mmHg 92%
    10:00 -4°C° 0,8 mm 3 m/S 643 mmHg 93%
    11:00 -4°C° 0,3 mm 3 m/S 644 mmHg 92%
    12:00 -3°C° 0,3 mm 4 m/S 644 mmHg 92%
    13:00 -2°C° 0 mm 3 m/S 644 mmHg 92%
    14:00 -4°C° 0,3 mm 3 m/S 644 mmHg 92%
    15:00 -4°C° 0,3 mm 3 m/S 644 mmHg 93%
    16:00 -4°C° 0,3 mm 3 m/S 645 mmHg 93%
    17:00 -4°C° 0,1 mm 2 m/S 645 mmHg 94%
    18:00 -5°C° 0,1 mm 2 m/S 645 mmHg 95%
    19:00 -5°C° 0,1 mm 2 m/S 646 mmHg 95%
    20:00 -6°C° 0,1 mm 2 m/S 646 mmHg 95%
    21:00 -6°C° 0,1 mm 2 m/S 646 mmHg 95%
    22:00 -7°C° 0,1 mm 2 m/S 647 mmHg 95%
    23:00 -7°C° 0 mm 2 m/S 647 mmHg 95%

    Morgen, 20 November, Montag

    Zeit Temperatur Niederschläge Wind Luftdruck Luftfeuchtigkeit
    00:00 -8°C° 0 mm 2 m/S 647 mmHg 94%
    01:00 -8°C° 0 mm 2 m/S 647 mmHg 93%
    02:00 -9°C° 0 mm 2 m/S 647 mmHg 91%
    03:00 -9°C° 0 mm 2 m/S 646 mmHg 90%
    04:00 -9°C° 0 mm 2 m/S 646 mmHg 88%
    05:00 -9°C° 0 mm 2 m/S 646 mmHg 85%
    06:00 -9°C° 0 mm 2 m/S 646 mmHg 83%
    07:00 -9°C° 0 mm 2 m/S 646 mmHg 80%
    08:00 -7°C° 0 mm 2 m/S 646 mmHg 78%
    09:00 -5°C° 0 mm 2 m/S 647 mmHg 75%
    10:00 -1°C° 0 mm 1 m/S 647 mmHg 73%
    11:00 0°C° 0 mm 1 m/S 647 mmHg 73%
    12:00 +1°C° 0 mm 1 m/S 647 mmHg 73%
    13:00 +2°C° 0 mm 1 m/S 647 mmHg 74%
    14:00 +1°C° 0 mm 1 m/S 646 mmHg 76%
    15:00 +1°C° 0 mm 1 m/S 646 mmHg 78%
    16:00 -2°C° 0 mm 2 m/S 646 mmHg 80%
    17:00 -3°C° 0 mm 2 m/S 646 mmHg 80%
    18:00 -3°C° 0 mm 2 m/S 646 mmHg 79%
    19:00 -4°C° 0 mm 2 m/S 645 mmHg 78%
    20:00 -4°C° 0 mm 2 m/S 645 mmHg 78%
    21:00 -5°C° 0 mm 3 m/S 645 mmHg 78%
    22:00 -5°C° 0 mm 3 m/S 645 mmHg 79%
    23:00 -5°C° 0 mm 3 m/S 645 mmHg 79%

    übermorgen, 21 November, Dienstag

    Zeit Temperatur Niederschläge Wind Luftdruck Luftfeuchtigkeit
    00:00 -5°C° 0 mm 3 m/S 645 mmHg 79%
    01:00 -4°C° 0 mm 3 m/S 645 mmHg 79%
    02:00 -3°C° 0,1 mm 2 m/S 645 mmHg 80%
    03:00 -3°C° 0,1 mm 2 m/S 645 mmHg 80%
    04:00 -3°C° 0,1 mm 2 m/S 645 mmHg 81%
    05:00 -2°C° 0,2 mm 2 m/S 645 mmHg 82%
    06:00 -2°C° 0,2 mm 2 m/S 646 mmHg 83%
    07:00 -2°C° 0,2 mm 3 m/S 646 mmHg 84%
    08:00 -1°C° 0 mm 2 m/S 646 mmHg 84%
    09:00 -1°C° 0 mm 2 m/S 646 mmHg 85%
    10:00 +1°C° 0 mm 2 m/S 646 mmHg 85%
    11:00 +2°C° 0 mm 2 m/S 646 mmHg 86%
    12:00 +2°C° 0 mm 2 m/S 646 mmHg 86%
    13:00 +3°C° 0 mm 2 m/S 646 mmHg 87%
    14:00 +3°C° 0 mm 2 m/S 646 mmHg 86%
    15:00 +2°C° 0 mm 2 m/S 646 mmHg 86%
    16:00 +2°C° 0 mm 2 m/S 645 mmHg 86%
    17:00 +1°C° 0 mm 2 m/S 645 mmHg 84%
    18:00 -1°C° 0 mm 2 m/S 645 mmHg 83%
    19:00 -1°C° 0 mm 2 m/S 645 mmHg 82%
    20:00 -1°C° 0 mm 2 m/S 645 mmHg 82%
    21:00 -1°C° 0 mm 2 m/S 645 mmHg 81%
    22:00 -1°C° 0 mm 2 m/S 645 mmHg 80%
    23:00 -2°C° 0 mm 2 m/S 645 mmHg 80%

    22 November, Mittwoch

    Zeit Temperatur Niederschläge Wind Luftdruck Luftfeuchtigkeit
    00:00 -2°C° 0 mm 2 m/S 645 mmHg 79%
    01:00 -2°C° 0 mm 2 m/S 645 mmHg 79%
    02:00 -2°C° 0 mm 2 m/S 645 mmHg 78%
    03:00 -2°C° 0 mm 2 m/S 645 mmHg 78%
    04:00 -2°C° 0 mm 2 m/S 644 mmHg 77%
    05:00 -2°C° 0 mm 2 m/S 644 mmHg 77%
    06:00 -2°C° 0 mm 2 m/S 644 mmHg 76%
    07:00 -2°C° 0 mm 2 m/S 645 mmHg 76%
    08:00 -1°C° 0 mm 2 m/S 645 mmHg 76%
    09:00 +1°C° 0 mm 2 m/S 645 mmHg 77%
    10:00 +3°C° 0 mm 2 m/S 646 mmHg 77%
    11:00 +5°C° 0 mm 1 m/S 646 mmHg 79%
    12:00 +6°C° 0 mm 1 m/S 646 mmHg 80%
    13:00 +7°C° 0 mm 1 m/S 646 mmHg 82%
    14:00 +6°C° 0 mm 1 m/S 646 mmHg 82%
    15:00 +5°C° 0 mm 1 m/S 645 mmHg 82%
    16:00 +4°C° 0 mm 1 m/S 645 mmHg 82%
    17:00 +2°C° 0 mm 2 m/S 645 mmHg 81%
    18:00 +1°C° 0 mm 2 m/S 645 mmHg 80%
    19:00 -1°C° 0 mm 2 m/S 645 mmHg 79%
    20:00 -1°C° 0 mm 2 m/S 645 mmHg 78%
    21:00 -1°C° 0 mm 2 m/S 645 mmHg 77%
    22:00 -1°C° 0 mm 2 m/S 646 mmHg 76%
    23:00 -1°C° 0 mm 2 m/S 646 mmHg 75%

    23 November, Donnerstag

    Zeit Temperatur Niederschläge Wind Luftdruck Luftfeuchtigkeit
    00:00 -1°C° 0 mm 2 m/S 646 mmHg 75%
    01:00 -2°C° 0 mm 2 m/S 646 mmHg 74%
    02:00 -2°C° 0 mm 2 m/S 646 mmHg 73%
    03:00 -2°C° 0 mm 2 m/S 646 mmHg 72%
    04:00 -2°C° 0 mm 2 m/S 646 mmHg 71%
    05:00 -2°C° 0 mm 2 m/S 646 mmHg 70%
    06:00 -2°C° 0 mm 2 m/S 646 mmHg 69%
    07:00 -2°C° 0 mm 2 m/S 647 mmHg 67%
    08:00 +1°C° 0 mm 2 m/S 647 mmHg 68%
    09:00 +2°C° 0 mm 2 m/S 648 mmHg 68%
    10:00 +3°C° 0 mm 2 m/S 648 mmHg 68%
    11:00 +6°C° 0 mm 1 m/S 649 mmHg 70%
    12:00 +7°C° 0 mm 1 m/S 649 mmHg 71%
    13:00 +8°C° 0 mm 1 m/S 649 mmHg 73%
    14:00 +7°C° 0 mm 1 m/S 649 mmHg 74%
    15:00 +6°C° 0 mm 1 m/S 648 mmHg 74%
    16:00 +4°C° 0 mm 1 m/S 648 mmHg 75%
    17:00 +3°C° 0 mm 1 m/S 648 mmHg 75%
    18:00 +1°C° 0 mm 2 m/S 648 mmHg 75%
    19:00 -1°C° 0 mm 2 m/S 648 mmHg 75%
    20:00 -1°C° 0 mm 2 m/S 648 mmHg 74%
    21:00 -1°C° 0 mm 2 m/S 648 mmHg 73%
    22:00 -1°C° 0 mm 2 m/S 648 mmHg 72%
    23:00 -2°C° 0 mm 2 m/S 648 mmHg 71%

    24 November, Freitag

    Zeit Temperatur Niederschläge Wind Luftdruck Luftfeuchtigkeit
    00:00 -2°C° 0 mm 2 m/S 648 mmHg 71%
    01:00 -2°C° 0 mm 2 m/S 648 mmHg 70%
    02:00 -2°C° 0 mm 2 m/S 648 mmHg 70%
    03:00 -2°C° 0 mm 2 m/S 648 mmHg 70%
    04:00 -2°C° 0 mm 2 m/S 647 mmHg 69%
    05:00 -2°C° 0 mm 2 m/S 647 mmHg 69%
    06:00 -3°C° 0 mm 2 m/S 647 mmHg 69%
    07:00 -3°C° 0 mm 2 m/S 647 mmHg 69%
    08:00 -1°C° 0 mm 2 m/S 648 mmHg 69%
    09:00 +1°C° 0 mm 2 m/S 648 mmHg 69%
    10:00 +3°C° 0 mm 2 m/S 648 mmHg 68%
    11:00 +5°C° 0 mm 1 m/S 648 mmHg 69%
    12:00 +6°C° 0 mm 1 m/S 648 mmHg 70%
    13:00 +7°C° 0 mm 1 m/S 648 mmHg 71%
    14:00 +6°C° 0 mm 1 m/S 648 mmHg 73%
    15:00 +5°C° 0 mm 1 m/S 648 mmHg 76%
    16:00 +4°C° 0 mm 1 m/S 647 mmHg 78%
    17:00 +3°C° 0 mm 1 m/S 647 mmHg 78%
    18:00 +1°C° 0 mm 2 m/S 647 mmHg 77%
    19:00 -1°C° 0 mm 2 m/S 647 mmHg 77%
    20:00 -1°C° 0 mm 2 m/S 647 mmHg 75%
    21:00 -1°C° 0 mm 2 m/S 647 mmHg 74%
    22:00 -1°C° 0 mm 2 m/S 647 mmHg 72%
    23:00 -1°C° 0 mm 2 m/S 647 mmHg 71%
    Mehr zeigen